"Pseudo-MPEC" for P11l8nH

Created 2021 Sep 20 16:07:09 UT using Find_Orb

Click here for an explanation of pseudo-MPECs

 
 Astrometry: 
     P11l8nH  C2021 09 13Hc8W(@etKlIB4L,a6]tRNYyEaNe\IP*fh;obZChLF0`r!bSuo'TnF51
     P11l8nH  C2021 09 13]S/1?l5IP!7FpSmA-9QG1GIN!DC(S7f,FQ%lfNCBeC8sI`:0yFXeF51
     P11l8nH  C2021 09 13m[9n%\Q2AstrometryMqsMHx@iM=1l`#ec=Zt=,\sguhF1sY8jR?F51
     P11l8nH  C2021 09 13lP_[redacted;WVFJp$i4AIb8Ont#5IE[4nL.lT++jb6ffnVT6YNF51
     P11l8nH |C2021 09 15cd#fyLe5a))gk*3y5siQ5ZUNN0amJkpjDv/Y7l=%]G8]6eAT`_05807
     P11l8nH |C2021 09 15g@S)F-kJR6GaI^Tf=kg0NWuUyPo8click`*Z8/Zl=Hd0edR@UsP^807
     P11l8nH |C2021 09 15Q%mPUbhhereoGH)9W+NDHv`f`%iJWcZQm(r12NMwtI'gZEsbiA9)807
     P11l8nH  C2021 09 15.y.QJ@:*Ka-Yg?a:?_iB@V#?OebK$kY$Sd(sXfDfor?hQxUJ`IjyF51
     P11l8nH  C2021 09 1582soi8xUI3E\7x?rX_pwMP\Lj,pCx]GLTF[.IoS,,+`#?eNpmPOVF51
     P11l8nH  C2021 09 15j5'34dO[j][Lk+Axk'*Qaexplanationap'5AN?AWP2mWy'AOefxF51
     P11l8nH  C2021 09 157X)20tn:%/VP6kqdelv;XirXJmaf2M$_Gjpu^dUn@+^fV#QHyF'BF51

Station data:
(807) Cerro Tololo Observatory, La Serena  (S30.169136 W70.805900)  Chile.
(F51) Pan-STARRS 1, Haleakala  (N20.707235 W156.255910)  US/Hawaii.
   Observers N. Primak, A. Schultz, S. Watters, J. Thiel, T. Goggia. Measurer
   PS1 Science Consortium. 1.8-m Ritchey-Chrétien + CCD.

Orbital elements:  P11l8nH
   Perihelion 2021 Dec 11.511961 +/- 465.784 TT = 12:17:13 (JD 2459560.011961)
Epoch 2021 Sep 15.0 TT = JDT 2459472.5   Ju: 0.1881           AutoNEOCP
M 352.71711790 +/- 63.727909        (J2000 ecliptic)
n   0.08322156 +/- 0.0761215        Peri.  279.03779 +/- 103.09285
a   5.19571682 +/- 3.16823          Node   148.68759 +/- 20.972155
e   0.0929736 +/- 0.241981          Incl.   24.59629 +/- 1.4308922
P  11.84                   H 15.2   G  0.15   U 11.0  SR
q 4.71265193 +/- 1.50282    Q 5.67878170 +/- 36.2464
From 11 observations 2021 Sept. 13-15; mean residual 0".12
Residuals in arcseconds: 
210913 F51  .02-  .09-    210915 807  .07-  .07+    210915 F51  .08-  .09-    
210913 F51  .04+  .05+    210915 807  .23-  .18+    210915 F51  .14-  .10-    
210913 F51  .02+  .05-    210915 807  .35+  .09+    210915 F51  .15+  .12-    
210913 F51  .05-  .05+    210915 F51  .04+  .01+    

Ephemerides (geocentric):
Date (UTC) HH   RA              Dec         delta   r     elong  mag " sig PA
---- -- -- --  -------------   -----------  ------ ------ -----  --- ---- ---
2021 09 20 16  04 57 56.011   -04 06 08.35  4.3825 4.7168 103.4 22.5 44.9 173
2021 09 20 17  04 57 56.553   -04 06 20.20  4.3819 4.7168 103.4 22.5 45.6 173
2021 09 20 18  04 57 57.092   -04 06 32.04  4.3814 4.7168 103.4 22.5 46.2 173
2021 09 20 19  04 57 57.631   -04 06 43.89  4.3808 4.7168 103.5 22.5 46.9 173
2021 09 20 20  04 57 58.167   -04 06 55.74  4.3803 4.7168 103.5 22.5 47.5 173
2021 09 20 21  04 57 58.703   -04 07 07.60  4.3797 4.7168 103.5 22.5 48.2 173
2021 09 20 22  04 57 59.237   -04 07 19.45  4.3792 4.7168 103.6 22.5 48.8 173
2021 09 20 23  04 57 59.770   -04 07 31.31  4.3786 4.7168 103.6 22.5 49.5 173
2021 09 21 00  04 58 00.301   -04 07 43.18  4.3781 4.7168 103.6 22.5 50.2 173
2021 09 21 01  04 58 00.831   -04 07 55.04  4.3775 4.7168 103.7 22.5 50.8 173
2021 09 21 02  04 58 01.359   -04 08 06.91  4.3770 4.7168 103.7 22.5 51.5 173
2021 09 21 03  04 58 01.887   -04 08 18.78  4.3764 4.7167 103.7 22.5 52.2 173
2021 09 21 04  04 58 02.412   -04 08 30.65  4.3759 4.7167 103.8 22.5 52.9 173
2021 09 21 05  04 58 02.937   -04 08 42.53  4.3753 4.7167 103.8 22.5 53.6 173
2021 09 21 06  04 58 03.460   -04 08 54.41  4.3748 4.7167 103.8 22.5 54.3 173
2021 09 21 07  04 58 03.981   -04 09 06.29  4.3743 4.7167 103.9 22.5 55.0 173
2021 09 21 08  04 58 04.501   -04 09 18.18  4.3737 4.7167 103.9 22.5 55.7 173
2021 09 21 09  04 58 05.020   -04 09 30.07  4.3732 4.7167 103.9 22.5 56.4 173
2021 09 21 10  04 58 05.537   -04 09 41.96  4.3726 4.7167 104.0 22.5 57.1 173
2021 09 21 11  04 58 06.053   -04 09 53.85  4.3721 4.7167 104.0 22.5 57.8 173
2021 09 21 12  04 58 06.568   -04 10 05.75  4.3715 4.7167 104.0 22.5 58.6 173
2021 09 21 13  04 58 07.081   -04 10 17.65  4.3710 4.7167 104.1 22.5 59.3 173
2021 09 21 14  04 58 07.592   -04 10 29.55  4.3704 4.7167 104.1 22.5 60.0 173
2021 09 21 15  04 58 08.103   -04 10 41.46  4.3699 4.7167 104.1 22.5 60.8 173
2021 09 21 16  04 58 08.611   -04 10 53.36  4.3693 4.7167 104.2 22.5 61.5 173
2021 09 21 17  04 58 09.119   -04 11 05.28  4.3688 4.7167 104.2 22.5 62.3 173
2021 09 21 18  04 58 09.625   -04 11 17.19  4.3683 4.7167 104.2 22.5 63.0 174
2021 09 21 19  04 58 10.130   -04 11 29.10  4.3677 4.7167 104.3 22.5 63.8 174
2021 09 21 20  04 58 10.633   -04 11 41.02  4.3672 4.7167 104.3 22.5 64.5 174
2021 09 21 21  04 58 11.135   -04 11 52.95  4.3666 4.7167 104.3 22.5 65.3 174
2021 09 21 22  04 58 11.635   -04 12 04.87  4.3661 4.7167 104.4 22.5 66.1 174
2021 09 21 23  04 58 12.134   -04 12 16.80  4.3655 4.7167 104.4 22.5 66.8 174
2021 09 22 00  04 58 12.632   -04 12 28.73  4.3650 4.7167 104.4 22.5 67.6 174
2021 09 22 01  04 58 13.128   -04 12 40.66  4.3644 4.7167 104.5 22.5 68.4 174
2021 09 22 02  04 58 13.623   -04 12 52.59  4.3639 4.7167 104.5 22.5 69.2 174
2021 09 22 03  04 58 14.116   -04 13 04.53  4.3634 4.7166 104.5 22.5 70.0 174
2021 09 22 04  04 58 14.608   -04 13 16.47  4.3628 4.7166 104.6 22.5 70.8 174
2021 09 22 05  04 58 15.099   -04 13 28.42  4.3623 4.7166 104.6 22.5 71.6 174
2021 09 22 06  04 58 15.588   -04 13 40.36  4.3617 4.7166 104.7 22.5 72.4 174
2021 09 22 07  04 58 16.076   -04 13 52.31  4.3612 4.7166 104.7 22.5 73.2 174
2021 09 22 08  04 58 16.562   -04 14 04.26  4.3606 4.7166 104.7 22.5 74.0 174
2021 09 22 09  04 58 17.047   -04 14 16.21  4.3601 4.7166 104.8 22.5 74.9 174
2021 09 22 10  04 58 17.530   -04 14 28.17  4.3596 4.7166 104.8 22.5 75.7 174
2021 09 22 11  04 58 18.013   -04 14 40.13  4.3590 4.7166 104.8 22.5 76.5 174
2021 09 22 12  04 58 18.493   -04 14 52.09  4.3585 4.7166 104.9 22.5 77.4 174
2021 09 22 13  04 58 18.973   -04 15 04.06  4.3579 4.7166 104.9 22.5 78.2 174
2021 09 22 14  04 58 19.450   -04 15 16.02  4.3574 4.7166 104.9 22.5 79.0 174
2021 09 22 15  04 58 19.927   -04 15 27.99  4.3568 4.7166 105.0 22.5 79.9 174